Ocoee 3 Observed Data For Previous 48 Hours

Caption
Day and Hour Reservoir Elevation (behind dam)* Tailwater Elevation (below dam)* Average Hourly Discharge*
11/17/2017 2 AM EST 1,432.49 1,118.59 1,044
11/17/2017 3 AM EST 1,432.67 1,118.56 1,044
11/17/2017 4 AM EST 1,432.81 1,118.62 1,046
11/17/2017 5 AM EST 1,432.85 1,118.56 1,043
11/17/2017 6 AM EST 1,432.82 1,118.60 1,045
11/17/2017 7 AM EST 1,432.73 1,118.49 1,043
11/17/2017 8 AM EST 1,432.63 1,118.50 1,045
11/17/2017 9 AM EST 1,432.50 1,118.49 1,043
11/17/2017 10 AM EST 1,432.37 1,118.51 1,045
11/17/2017 11 AM EST 1,432.22 1,118.54 1,049
11/17/2017 12 PM EST 1,432.15 1,118.58 1,047
11/17/2017 1 PM EST 1,432.28 1,118.52 1,048
11/17/2017 2 PM EST 1,432.46 1,118.70 1,047
11/17/2017 3 PM EST 1,432.65 1,118.61 1,045
11/17/2017 4 PM EST 1,432.83 1,118.56 1,042
11/17/2017 5 PM EST 1,432.96 1,118.60 1,047
11/17/2017 6 PM EST 1,432.99 1,118.61 1,044
11/17/2017 7 PM EST 1,432.96 1,118.57 1,044
11/17/2017 8 PM EST 1,432.88 1,118.55 1,040
11/17/2017 9 PM EST 1,432.77 1,118.58 1,046
11/17/2017 10 PM EST 1,432.65 1,118.53 1,047
11/17/2017 11 PM EST 1,432.52 1,118.51 1,049
11/18/2017 12 AM EST 1,432.43 1,118.51 1,046
11/18/2017 1 AM EST 1,432.53 1,118.53 1,048
11/18/2017 2 AM EST 1,432.65 1,118.52 1,043
11/18/2017 3 AM EST 1,432.69 1,118.61 1,049
11/18/2017 4 AM EST 1,432.65 1,118.54 1,045
11/18/2017 5 AM EST 1,432.57 1,118.59 1,046
11/18/2017 6 AM EST 1,432.46 1,118.50 1,046
11/18/2017 7 AM EST 1,432.33 1,118.54 1,048
11/18/2017 8 AM EST 1,432.19 1,118.45 1,045
11/18/2017 9 AM EST 1,432.05 1,118.57 1,048
11/18/2017 10 AM EST 1,431.90 1,118.52 1,048
11/18/2017 11 AM EST 1,431.74 1,118.57 1,049
11/18/2017 12 PM EST 1,431.62 1,118.58 1,049
11/18/2017 1 PM EST 1,431.69 1,118.59 1,051
11/18/2017 2 PM EST 1,431.86 1,118.53 1,050
11/18/2017 3 PM EST 1,432.05 1,118.57 1,051
11/18/2017 4 PM EST 1,432.20 1,118.56 1,049
11/18/2017 5 PM EST 1,432.26 1,118.54 1,049
11/18/2017 6 PM EST 1,432.23 1,118.62 1,046
11/18/2017 7 PM EST 1,432.16 1,118.63 1,050
11/18/2017 8 PM EST 1,432.05 1,118.54 1,044
11/18/2017 9 PM EST 1,431.92 1,118.59 1,051
11/18/2017 10 PM EST 1,431.76 1,118.63 1,046
11/18/2017 11 PM EST 1,431.61 1,118.65 1,052
11/19/2017 12 AM EST 1,431.51 1,118.65 1,047
11/19/2017 1 AM EST 1,431.62 1,118.63 1,052
11/19/2017 2 AM EST 1,431.84 1,118.66 1,054
11/19/2017 3 AM EST 1,432.03 1,118.68 1,051

Elevations are in feet above sea level. Discharges are in cubic feet per second and are reported at the end of the hour.